Time,TemperatureF,DewpointF,PressureIn,WindDirection,WindDirectionDegrees,WindSpeedMPH,WindSpeedGustMPH,Humidity,HourlyPrecipIn,Conditions,Clouds,dailyrainin,SoftwareType,DateUTC
2013-09-08 00:00:00,85.2,66.1,29.93,SE,143,0.0,6.0,53,0.00,,,0.00,Weather View 32 v70,2013-09-08 05:00:00,
2013-09-08 00:10:00,84.9,66.3,29.92,SE,143,0.0,5.0,54,0.00,,,0.00,Weather View 32 v70,2013-09-08 05:10:00,
2013-09-08 00:15:00,84.8,66.2,29.92,SE,143,0.0,5.0,54,0.00,,,0.00,Weather View 32 v70,2013-09-08 05:15:00,
2013-09-08 00:20:00,84.7,66.1,29.92,SE,143,1.0,5.0,54,0.00,,,0.00,Weather View 32 v70,2013-09-08 05:20:00,
2013-09-08 00:25:00,84.6,66.1,29.92,SE,143,0.0,5.0,54,0.00,,,0.00,Weather View 32 v70,2013-09-08 05:25:00,
2013-09-08 00:35:00,84.6,66.1,29.92,SE,143,0.0,5.0,54,0.00,,,0.00,Weather View 32 v70,2013-09-08 05:35:00,
2013-09-08 00:40:00,84.4,66.4,29.92,SE,143,1.0,5.0,55,0.00,,,0.00,Weather View 32 v70,2013-09-08 05:40:00,
2013-09-08 00:45:00,84.3,66.3,29.93,SE,143,2.0,5.0,55,0.00,,,0.00,Weather View 32 v70,2013-09-08 05:45:00,
2013-09-08 00:55:00,84.1,66.1,29.93,SE,143,0.0,7.0,55,0.00,,,0.00,Weather View 32 v70,2013-09-08 05:55:00,
2013-09-08 01:00:00,84.0,66.6,29.93,SE,143,3.0,7.0,56,0.00,,,0.00,Weather View 32 v70,2013-09-08 06:00:00,
2013-09-08 01:10:00,83.7,66.3,29.93,SE,143,0.0,7.0,56,0.00,,,0.00,Weather View 32 v70,2013-09-08 06:10:00,
2013-09-08 01:20:00,83.4,66.5,29.92,SE,143,0.0,7.0,57,0.00,,,0.00,Weather View 32 v70,2013-09-08 06:20:00,
2013-09-08 01:25:00,83.2,66.3,29.92,SE,143,0.0,7.0,57,0.00,,,0.00,Weather View 32 v70,2013-09-08 06:25:00,
2013-09-08 01:35:00,82.8,66.5,29.92,SE,143,0.0,7.0,58,0.00,,,0.00,Weather View 32 v70,2013-09-08 06:35:00,
2013-09-08 01:45:00,82.6,66.8,29.92,SE,143,0.0,7.0,59,0.00,,,0.00,Weather View 32 v70,2013-09-08 06:45:00,
2013-09-08 01:55:00,82.2,66.9,29.92,SE,143,0.0,5.0,60,0.00,,,0.00,Weather View 32 v70,2013-09-08 06:55:00,
2013-09-08 02:05:00,82.0,66.7,29.92,SE,143,1.0,4.0,60,0.00,,,0.00,Weather View 32 v70,2013-09-08 07:05:00,
2013-09-08 02:15:00,81.7,66.9,29.92,SE,143,0.0,5.0,61,0.00,,,0.00,Weather View 32 v70,2013-09-08 07:15:00,
2013-09-08 02:20:00,81.7,67.4,29.92,SE,145,2.0,8.0,62,0.00,,,0.00,Weather View 32 v70,2013-09-08 07:20:00,
2013-09-08 02:25:00,81.6,67.3,29.92,SSE,147,6.0,8.0,62,0.00,,,0.00,Weather View 32 v70,2013-09-08 07:25:00,
2013-09-08 02:35:00,81.1,67.3,29.91,SSE,147,0.0,8.0,63,0.00,,,0.00,Weather View 32 v70,2013-09-08 07:35:00,
2013-09-08 02:40:00,80.9,67.5,29.91,SSE,147,0.0,8.0,64,0.00,,,0.00,Weather View 32 v70,2013-09-08 07:40:00,
2013-09-08 02:45:00,80.7,67.3,29.91,SSE,147,0.0,8.0,64,0.00,,,0.00,Weather View 32 v70,2013-09-08 07:45:00,
2013-09-08 02:55:00,80.5,67.6,29.92,SSE,147,1.0,8.0,65,0.00,,,0.00,Weather View 32 v70,2013-09-08 07:55:00,
2013-09-08 03:00:00,80.4,67.5,29.91,SSE,147,4.0,8.0,65,0.00,,,0.00,Weather View 32 v70,2013-09-08 08:00:00,
2013-09-08 03:10:00,80.5,67.6,29.91,SSE,147,0.0,8.0,65,0.00,,,0.00,Weather View 32 v70,2013-09-08 08:10:00,
2013-09-08 03:20:00,80.3,67.4,29.91,SSE,147,4.0,8.0,65,0.00,,,0.00,Weather View 32 v70,2013-09-08 08:20:00,
2013-09-08 03:30:00,80.4,67.1,29.91,SSE,147,0.0,6.0,64,0.00,,,0.00,Weather View 32 v70,2013-09-08 08:30:00,
2013-09-08 03:36:00,80.3,67.0,29.91,SSE,147,0.0,6.0,64,0.00,,,0.00,Weather View 32 v70,2013-09-08 08:36:00,
2013-09-08 03:45:00,80.3,67.0,29.92,SSE,148,3.0,6.0,64,0.00,,,0.00,Weather View 32 v70,2013-09-08 08:45:00,
2013-09-08 03:55:00,80.5,67.2,29.92,SSE,148,0.0,6.0,64,0.00,,,0.00,Weather View 32 v70,2013-09-08 08:55:00,
2013-09-08 04:00:00,80.3,67.0,29.92,SSE,148,0.0,6.0,64,0.00,,,0.00,Weather View 32 v70,2013-09-08 09:00:00,
2013-09-08 04:10:00,80.3,67.0,29.92,SSE,148,0.0,6.0,64,0.00,,,0.00,Weather View 32 v70,2013-09-08 09:10:00,
2013-09-08 04:20:00,80.3,67.0,29.92,SSE,148,1.0,6.0,64,0.00,,,0.00,Weather View 32 v70,2013-09-08 09:20:00,
2013-09-08 04:25:00,80.1,67.2,29.92,SSE,148,0.0,6.0,65,0.00,,,0.00,Weather View 32 v70,2013-09-08 09:25:00,
2013-09-08 04:35:00,79.9,67.0,29.92,SSE,148,0.0,6.0,65,0.00,,,0.00,Weather View 32 v70,2013-09-08 09:35:00,
2013-09-08 04:40:00,79.8,66.9,29.93,SSE,148,0.0,6.0,65,0.00,,,0.00,Weather View 32 v70,2013-09-08 09:40:00,
2013-09-08 04:45:00,79.6,67.2,29.93,SSE,147,0.0,6.0,66,0.00,,,0.00,Weather View 32 v70,2013-09-08 09:45:00,
2013-09-08 04:55:00,79.2,66.8,29.93,SSE,147,0.0,6.0,66,0.00,,,0.00,Weather View 32 v70,2013-09-08 09:55:00,
2013-09-08 05:00:00,79.2,66.8,29.92,SSE,147,0.0,6.0,66,0.00,,,0.00,Weather View 32 v70,2013-09-08 10:00:00,
2013-09-08 05:05:00,79.1,66.7,29.92,SSE,148,0.0,6.0,66,0.00,,,0.00,Weather View 32 v70,2013-09-08 10:05:00,
2013-09-08 05:15:00,78.8,66.4,29.92,SSE,147,0.0,3.0,66,0.00,,,0.00,Weather View 32 v70,2013-09-08 10:15:00,
2013-09-08 05:20:00,78.7,66.3,29.92,SSE,148,0.0,3.0,66,0.00,,,0.00,Weather View 32 v70,2013-09-08 10:20:00,
2013-09-08 05:30:00,78.9,66.1,29.93,SSE,147,0.0,2.0,65,0.00,,,0.00,Weather View 32 v70,2013-09-08 10:30:00,
2013-09-08 05:35:00,78.9,66.1,29.93,SSE,148,0.0,3.0,65,0.00,,,0.00,Weather View 32 v70,2013-09-08 10:35:00,
2013-09-08 05:40:00,78.9,66.1,29.93,SSE,148,0.0,3.0,65,0.00,,,0.00,Weather View 32 v70,2013-09-08 10:40:00,
2013-09-08 05:45:00,78.9,66.1,29.93,SSE,147,0.0,5.0,65,0.00,,,0.00,Weather View 32 v70,2013-09-08 10:45:00,
2013-09-08 05:55:00,79.1,65.8,29.93,SSE,148,0.0,5.0,64,0.00,,,0.00,Weather View 32 v70,2013-09-08 10:55:00,
2013-09-08 06:05:00,78.9,65.6,29.93,SSE,148,0.0,5.0,64,0.00,,,0.00,Weather View 32 v70,2013-09-08 11:05:00,
2013-09-08 06:10:00,78.7,65.4,29.93,SSE,147,0.0,5.0,64,0.00,,,0.00,Weather View 32 v70,2013-09-08 11:10:00,
2013-09-08 06:20:00,78.4,65.6,29.93,SSE,148,0.0,5.0,65,0.00,,,0.00,Weather View 32 v70,2013-09-08 11:20:00,
2013-09-08 06:25:00,78.3,65.5,29.93,SSE,148,0.0,5.0,65,0.00,,,0.00,Weather View 32 v70,2013-09-08 11:25:00,
2013-09-08 06:35:00,78.0,65.7,29.94,SSE,147,0.0,5.0,66,0.00,,,0.00,Weather View 32 v70,2013-09-08 11:35:00,
2013-09-08 06:40:00,77.9,65.6,29.94,SSE,148,0.0,5.0,66,0.00,,,0.00,Weather View 32 v70,2013-09-08 11:40:00,
2013-09-08 06:45:00,77.8,65.5,29.94,SSE,148,1.0,4.0,66,0.00,,,0.00,Weather View 32 v70,2013-09-08 11:45:00,
2013-09-08 06:55:00,77.6,65.7,29.94,SSE,147,0.0,4.0,67,0.00,,,0.00,Weather View 32 v70,2013-09-08 11:55:00,
2013-09-08 07:05:00,77.5,65.6,29.94,SSE,148,0.0,4.0,67,0.00,,,0.00,Weather View 32 v70,2013-09-08 12:05:00,
2013-09-08 07:15:00,77.3,65.9,29.94,SSE,148,0.0,3.0,68,0.00,,,0.00,Weather View 32 v70,2013-09-08 12:15:00,
2013-09-08 07:25:00,77.1,65.7,29.94,SSE,148,0.0,1.0,68,0.00,,,0.00,Weather View 32 v70,2013-09-08 12:25:00,
2013-09-08 07:35:00,77.2,66.2,29.94,SSE,148,0.0,1.0,69,0.00,,,0.00,Weather View 32 v70,2013-09-08 12:35:00,
2013-09-08 07:40:00,77.2,66.2,29.94,SSE,148,0.0,1.0,69,0.00,,,0.00,Weather View 32 v70,2013-09-08 12:40:00,
2013-09-08 07:45:00,77.2,66.6,29.94,SSE,148,0.0,1.0,70,0.00,,,0.00,Weather View 32 v70,2013-09-08 12:45:00,
2013-09-08 07:55:00,77.4,66.8,29.94,SSE,148,1.0,3.0,70,0.00,,,0.00,Weather View 32 v70,2013-09-08 12:55:00,
2013-09-08 08:00:00,77.6,67.0,29.94,SSE,147,0.0,3.0,70,0.00,,,0.00,Weather View 32 v70,2013-09-08 13:00:00,
2013-09-08 08:10:00,78.0,66.5,29.94,SSE,148,3.0,5.0,68,0.00,,,0.00,Weather View 32 v70,2013-09-08 13:10:00,
2013-09-08 08:20:00,78.5,66.6,29.94,SSE,148,1.0,6.0,67,0.00,,,0.00,Weather View 32 v70,2013-09-08 13:20:00,
2013-09-08 08:25:00,78.7,66.8,29.94,SSE,148,2.0,6.0,67,0.00,,,0.00,Weather View 32 v70,2013-09-08 13:25:00,
2013-09-08 08:35:00,79.4,66.6,29.94,SSE,148,4.0,8.0,65,0.00,,,0.00,Weather View 32 v70,2013-09-08 13:35:00,
2013-09-08 08:40:00,79.6,66.8,29.94,SSE,148,6.0,8.0,65,0.00,,,0.00,Weather View 32 v70,2013-09-08 13:40:00,
2013-09-08 08:50:00,80.3,67.0,29.94,SSE,148,4.0,9.0,64,0.00,,,0.00,Weather View 32 v70,2013-09-08 13:50:00,
2013-09-08 08:55:00,80.7,66.9,29.94,SSE,149,2.0,9.0,63,0.00,,,0.00,Weather View 32 v70,2013-09-08 13:55:00,
2013-09-08 09:00:00,81.2,66.9,29.94,SSE,150,5.0,9.0,62,0.00,,,0.00,Weather View 32 v70,2013-09-08 14:00:00,
2013-09-08 09:10:00,82.1,66.8,29.95,SSE,160,3.0,9.0,60,0.00,,,0.00,Weather View 32 v70,2013-09-08 14:10:00,
2013-09-08 09:15:00,82.4,67.1,29.95,SSE,164,3.0,9.0,60,0.00,,,0.00,Weather View 32 v70,2013-09-08 14:15:00,
2013-09-08 09:20:00,82.5,66.7,29.95,South,170,5.0,9.0,59,0.00,,,0.00,Weather View 32 v70,2013-09-08 14:20:00,
2013-09-08 09:30:00,82.9,67.0,29.95,South,173,5.0,9.0,59,0.00,,,0.00,Weather View 32 v70,2013-09-08 14:30:00,
2013-09-08 09:35:00,83.3,66.9,29.95,South,176,7.0,9.0,58,0.00,,,0.00,Weather View 32 v70,2013-09-08 14:35:00,
2013-09-08 09:40:00,83.4,67.0,29.94,SSW,194,4.0,11.0,58,0.00,,,0.00,Weather View 32 v70,2013-09-08 14:40:00,
2013-09-08 09:50:00,84.0,67.6,29.95,SSW,199,0.0,11.0,58,0.00,,,0.00,Weather View 32 v70,2013-09-08 14:50:00,
2013-09-08 09:55:00,84.5,67.5,29.95,SSW,198,6.0,11.0,57,0.00,,,0.00,Weather View 32 v70,2013-09-08 14:55:00,
2013-09-08 10:05:00,85.5,67.4,29.95,SSW,198,7.0,11.0,55,0.00,,,0.00,Weather View 32 v70,2013-09-08 15:05:00,
2013-09-08 10:10:00,85.9,67.8,29.95,SSW,198,5.0,11.0,55,0.00,,,0.00,Weather View 32 v70,2013-09-08 15:10:00,
2013-09-08 10:20:00,86.7,67.4,29.96,SSW,202,3.0,11.0,53,0.00,,,0.00,Weather View 32 v70,2013-09-08 15:20:00,
2013-09-08 10:25:00,87.0,67.7,29.95,SSW,203,4.0,11.0,53,0.00,,,0.00,Weather View 32 v70,2013-09-08 15:25:00,
2013-09-08 10:30:00,87.4,67.5,29.95,SSW,204,7.0,11.0,52,0.00,,,0.00,Weather View 32 v70,2013-09-08 15:30:00,
2013-09-08 10:40:00,88.2,67.7,29.96,SW,226,6.0,10.0,51,0.00,,,0.00,Weather View 32 v70,2013-09-08 15:40:00,
2013-09-08 10:45:00,88.2,67.7,29.95,SW,224,6.0,10.0,51,0.00,,,0.00,Weather View 32 v70,2013-09-08 15:45:00,
2013-09-08 10:50:00,88.5,68.0,29.95,SSW,205,8.0,12.0,51,0.00,,,0.00,Weather View 32 v70,2013-09-08 15:50:00,
2013-09-08 11:00:00,89.4,68.2,29.95,SW,231,5.0,12.0,50,0.00,,,0.00,Weather View 32 v70,2013-09-08 16:00:00,
2013-09-08 11:05:00,89.9,67.5,29.95,SSW,194,4.0,12.0,48,0.00,,,0.00,Weather View 32 v70,2013-09-08 16:05:00,
2013-09-08 11:15:00,90.1,68.3,29.95,SSW,212,3.0,12.0,49,0.00,,,0.00,Weather View 32 v70,2013-09-08 16:15:00,
2013-09-08 11:20:00,90.5,68.0,29.95,SSW,206,0.0,12.0,48,0.00,,,0.00,Weather View 32 v70,2013-09-08 16:20:00,
2013-09-08 11:30:00,91.0,67.9,29.95,SSW,200,5.0,12.0,47,0.00,,,0.00,Weather View 32 v70,2013-09-08 16:30:00,
2013-09-08 11:35:00,91.4,67.0,29.94,SSW,208,7.0,12.0,45,0.00,,,0.00,Weather View 32 v70,2013-09-08 16:35:00,
2013-09-08 11:41:00,91.8,66.7,29.94,SSW,208,2.0,13.0,44,0.00,,,0.00,Weather View 32 v70,2013-09-08 16:41:00,
2013-09-08 11:50:00,92.3,66.5,29.94,SSW,208,3.0,13.0,43,0.00,,,0.00,Weather View 32 v70,2013-09-08 16:50:00,
2013-09-08 11:55:00,92.6,66.1,29.94,SSW,208,4.0,13.0,42,0.00,,,0.00,Weather View 32 v70,2013-09-08 16:55:00,
2013-09-08 12:00:00,92.9,65.6,29.94,SSW,208,7.0,13.0,41,0.00,,,0.00,Weather View 32 v70,2013-09-08 17:00:00,
2013-09-08 12:05:00,93.2,65.9,29.94,SSW,206,0.0,13.0,41,0.00,,,0.00,Weather View 32 v70,2013-09-08 17:05:00,
2013-09-08 12:10:00,93.7,65.6,29.94,WSW,240,8.0,13.0,40,0.00,,,0.00,Weather View 32 v70,2013-09-08 17:10:00,
2013-09-08 12:15:00,93.9,66.5,29.94,SSW,209,7.0,13.0,41,0.00,,,0.00,Weather View 32 v70,2013-09-08 17:15:00,
2013-09-08 12:25:00,94.1,66.7,29.94,SSW,212,4.0,15.0,41,0.00,,,0.00,Weather View 32 v70,2013-09-08 17:25:00,
2013-09-08 12:30:00,94.0,66.6,29.94,SSW,200,4.0,15.0,41,0.00,,,0.00,Weather View 32 v70,2013-09-08 17:30:00,
2013-09-08 12:35:00,94.1,68.1,29.93,SSW,207,7.0,15.0,43,0.00,,,0.00,Weather View 32 v70,2013-09-08 17:35:00,
2013-09-08 12:42:00,93.9,65.8,29.93,SSW,203,7.0,15.0,40,0.00,,,0.00,Weather View 32 v70,2013-09-08 17:42:00,
2013-09-08 12:50:00,94.7,67.9,29.93,South,169,5.0,15.0,42,0.00,,,0.00,Weather View 32 v70,2013-09-08 17:50:00,
2013-09-08 12:55:00,94.7,67.2,29.93,SSW,193,9.0,15.0,41,0.00,,,0.00,Weather View 32 v70,2013-09-08 17:55:00,
2013-09-08 13:00:00,94.7,67.2,29.93,South,178,4.0,15.0,41,0.00,,,0.00,Weather View 32 v70,2013-09-08 18:00:00,
2013-09-08 13:05:00,94.7,67.2,29.93,SSE,158,5.0,15.0,41,0.00,,,0.00,Weather View 32 v70,2013-09-08 18:05:00,
2013-09-08 13:15:00,95.1,66.9,29.92,SSE,162,8.0,15.0,40,0.00,,,0.00,Weather View 32 v70,2013-09-08 18:15:00,
2013-09-08 13:25:00,95.6,66.6,29.92,South,191,13.0,15.0,39,0.00,,,0.00,Weather View 32 v70,2013-09-08 18:25:00,
2013-09-08 13:30:00,95.0,65.3,29.92,SSW,197,7.0,15.0,38,0.00,,,0.00,Weather View 32 v70,2013-09-08 18:30:00,
2013-09-08 13:35:00,95.4,66.4,29.91,South,181,5.0,15.0,39,0.00,,,0.00,Weather View 32 v70,2013-09-08 18:35:00,
2013-09-08 13:42:00,95.8,65.2,29.91,SSE,158,8.0,14.0,37,0.00,,,0.00,Weather View 32 v70,2013-09-08 18:42:00,
2013-09-08 13:50:00,95.8,65.2,29.91,SSW,205,6.0,14.0,37,0.00,,,0.00,Weather View 32 v70,2013-09-08 18:50:00,
2013-09-08 13:55:00,95.8,64.4,29.91,SSW,202,6.0,14.0,36,0.00,,,0.00,Weather View 32 v70,2013-09-08 18:55:00,
2013-09-08 14:00:00,95.8,64.4,29.91,SSW,212,7.0,14.0,36,0.00,,,0.00,Weather View 32 v70,2013-09-08 19:00:00,
2013-09-08 14:10:00,96.1,64.7,29.91,SSW,212,2.0,14.0,36,0.00,,,0.00,Weather View 32 v70,2013-09-08 19:10:00,
2013-09-08 14:15:00,96.4,65.0,29.91,South,183,8.0,14.0,36,0.00,,,0.00,Weather View 32 v70,2013-09-08 19:15:00,
2013-09-08 14:25:00,96.0,64.6,29.91,SSE,158,8.0,15.0,36,0.00,,,0.00,Weather View 32 v70,2013-09-08 19:25:00,
2013-09-08 14:35:00,96.4,64.2,29.90,South,172,0.0,15.0,35,0.00,,,0.00,Weather View 32 v70,2013-09-08 19:35:00,
2013-09-08 14:43:00,96.1,63.9,29.90,SSE,162,7.0,15.0,35,0.00,,,0.00,Weather View 32 v70,2013-09-08 19:43:00,
2013-09-08 14:50:00,96.5,65.1,29.90,South,182,6.0,16.0,36,0.00,,,0.00,Weather View 32 v70,2013-09-08 19:50:00,
2013-09-08 14:55:00,96.5,65.1,29.90,South,180,7.0,16.0,36,0.00,,,0.00,Weather View 32 v70,2013-09-08 19:55:00,
2013-09-08 15:00:00,96.1,64.7,29.89,South,185,6.0,16.0,36,0.00,,,0.00,Weather View 32 v70,2013-09-08 20:00:00,
2013-09-08 15:05:00,95.9,65.3,29.89,SSE,148,8.0,16.0,37,0.00,,,0.00,Weather View 32 v70,2013-09-08 20:05:00,
2013-09-08 15:10:00,96.4,65.8,29.89,South,190,9.0,16.0,37,0.00,,,0.00,Weather View 32 v70,2013-09-08 20:10:00,
2013-09-08 15:20:00,96.5,64.2,29.89,SSE,159,9.0,16.0,35,0.00,,,0.00,Weather View 32 v70,2013-09-08 20:20:00,
2013-09-08 15:25:00,96.4,64.2,29.88,SSW,202,0.0,16.0,35,0.00,,,0.00,Weather View 32 v70,2013-09-08 20:25:00,
2013-09-08 15:35:00,96.6,64.3,29.88,South,169,9.0,16.0,35,0.00,,,0.00,Weather View 32 v70,2013-09-08 20:35:00,
2013-09-08 15:40:00,96.3,64.1,29.88,SSW,204,6.0,16.0,35,0.00,,,0.00,Weather View 32 v70,2013-09-08 20:40:00,
2013-09-08 15:50:00,96.8,65.3,29.88,SSE,155,4.0,15.0,36,0.00,,,0.00,Weather View 32 v70,2013-09-08 20:50:00,
2013-09-08 15:55:00,97.0,65.5,29.88,South,169,2.0,15.0,36,0.00,,,0.00,Weather View 32 v70,2013-09-08 20:55:00,
2013-09-08 16:00:00,96.7,65.2,29.88,SE,143,7.0,15.0,36,0.00,,,0.00,Weather View 32 v70,2013-09-08 21:00:00,
2013-09-08 16:10:00,96.6,64.3,29.88,South,187,7.0,15.0,35,0.00,,,0.00,Weather View 32 v70,2013-09-08 21:10:00,
2013-09-08 16:20:00,96.5,65.1,29.87,SSW,192,8.0,15.0,36,0.00,,,0.00,Weather View 32 v70,2013-09-08 21:20:00,
2013-09-08 16:25:00,96.3,64.1,29.88,SE,132,10.0,15.0,35,0.00,,,0.00,Weather View 32 v70,2013-09-08 21:25:00,
2013-09-08 16:35:00,96.2,64.0,29.87,SE,143,7.0,15.0,35,0.00,,,0.00,Weather View 32 v70,2013-09-08 21:35:00,
2013-09-08 16:44:00,96.0,63.8,29.87,SSE,151,8.0,15.0,35,0.00,,,0.00,Weather View 32 v70,2013-09-08 21:44:00,
2013-09-08 16:50:00,96.1,63.9,29.87,South,171,1.0,14.0,35,0.00,,,0.00,Weather View 32 v70,2013-09-08 21:50:00,
2013-09-08 17:00:00,96.2,63.2,29.87,SSE,162,8.0,14.0,34,0.00,,,0.00,Weather View 32 v70,2013-09-08 22:00:00,
2013-09-08 17:10:00,95.8,62.8,29.87,South,177,8.0,14.0,34,0.00,,,0.00,Weather View 32 v70,2013-09-08 22:10:00,
2013-09-08 17:20:00,96.0,63.0,29.87,South,178,5.0,15.0,34,0.00,,,0.00,Weather View 32 v70,2013-09-08 22:20:00,
2013-09-08 17:30:00,95.9,64.5,29.87,SE,143,7.0,15.0,36,0.00,,,0.00,Weather View 32 v70,2013-09-08 22:30:00,
2013-09-08 17:35:00,96.0,64.6,29.87,SSE,165,2.0,15.0,36,0.00,,,0.00,Weather View 32 v70,2013-09-08 22:35:00,
2013-09-08 17:45:00,95.8,64.4,29.87,SSE,159,3.0,15.0,36,0.00,,,0.00,Weather View 32 v70,2013-09-08 22:45:00,
2013-09-08 17:50:00,95.4,63.3,29.87,South,172,2.0,16.0,35,0.00,,,0.00,Weather View 32 v70,2013-09-08 22:50:00,
2013-09-08 18:00:00,95.3,64.0,29.86,South,185,9.0,16.0,36,0.00,,,0.00,Weather View 32 v70,2013-09-08 23:00:00,
2013-09-08 18:05:00,94.9,64.4,29.86,South,185,2.0,16.0,37,0.00,,,0.00,Weather View 32 v70,2013-09-08 23:05:00,
2013-09-08 18:10:00,95.0,64.5,29.86,SSE,164,2.0,16.0,37,0.00,,,0.00,Weather View 32 v70,2013-09-08 23:10:00,
2013-09-08 18:20:00,95.1,64.6,29.86,South,174,4.0,16.0,37,0.00,,,0.00,Weather View 32 v70,2013-09-08 23:20:00,
2013-09-08 18:25:00,95.0,65.3,29.86,SE,137,6.0,16.0,38,0.00,,,0.00,Weather View 32 v70,2013-09-08 23:25:00,
2013-09-08 18:30:00,94.6,64.9,29.86,SE,143,0.0,16.0,38,0.00,,,0.00,Weather View 32 v70,2013-09-08 23:30:00,
2013-09-08 18:35:00,94.6,64.9,29.86,SSE,166,0.0,16.0,38,0.00,,,0.00,Weather View 32 v70,2013-09-08 23:35:00,
2013-09-08 18:45:00,94.4,64.8,29.86,South,176,0.0,16.0,38,0.00,,,0.00,Weather View 32 v70,2013-09-08 23:45:00,
2013-09-08 18:55:00,94.1,65.3,29.85,South,169,6.0,13.0,39,0.00,,,0.00,Weather View 32 v70,2013-09-08 23:55:00,
2013-09-08 19:00:00,93.9,65.1,29.85,SSE,163,0.0,13.0,39,0.00,,,0.00,Weather View 32 v70,2013-09-09 00:00:00,
2013-09-08 19:05:00,93.9,65.1,29.85,South,186,0.0,11.0,39,0.00,,,0.00,Weather View 32 v70,2013-09-09 00:05:00,
2013-09-08 19:10:00,93.7,65.6,29.85,SSE,164,0.0,11.0,40,0.00,,,0.00,Weather View 32 v70,2013-09-09 00:10:00,
2013-09-08 19:20:00,93.4,65.4,29.85,South,186,8.0,11.0,40,0.00,,,0.00,Weather View 32 v70,2013-09-09 00:20:00,
2013-09-08 19:25:00,93.3,65.3,29.85,South,181,7.0,11.0,40,0.00,,,0.00,Weather View 32 v70,2013-09-09 00:25:00,
2013-09-08 19:30:00,93.1,65.1,29.85,South,181,0.0,10.0,40,0.00,,,0.00,Weather View 32 v70,2013-09-09 00:30:00,
2013-09-08 19:40:00,92.7,65.4,29.85,South,181,0.0,10.0,41,0.00,,,0.00,Weather View 32 v70,2013-09-09 00:40:00,
2013-09-08 19:45:00,92.6,65.4,29.86,South,181,0.0,10.0,41,0.00,,,0.00,Weather View 32 v70,2013-09-09 00:45:00,
2013-09-08 19:50:00,92.4,65.9,29.86,South,181,0.0,10.0,42,0.00,,,0.00,Weather View 32 v70,2013-09-09 00:50:00,
2013-09-08 20:00:00,92.1,65.6,29.86,South,181,0.0,9.0,42,0.00,,,0.00,Weather View 32 v70,2013-09-09 01:00:00,
2013-09-08 20:05:00,91.9,66.1,29.86,South,181,0.0,8.0,43,0.00,,,0.00,Weather View 32 v70,2013-09-09 01:05:00,
2013-09-08 20:15:00,91.7,65.9,29.86,South,181,0.0,8.0,43,0.00,,,0.00,Weather View 32 v70,2013-09-09 01:15:00,
2013-09-08 20:20:00,91.5,66.4,29.86,South,181,0.0,8.0,44,0.00,,,0.00,Weather View 32 v70,2013-09-09 01:20:00,
2013-09-08 20:30:00,91.0,66.6,29.87,South,181,0.0,3.0,45,0.00,,,0.00,Weather View 32 v70,2013-09-09 01:30:00,
2013-09-08 20:35:00,90.8,66.4,29.87,South,181,0.0,3.0,45,0.00,,,0.00,Weather View 32 v70,2013-09-09 01:35:00,
2013-09-08 20:45:00,90.3,66.6,29.87,South,181,0.0,3.0,46,0.00,,,0.00,Weather View 32 v70,2013-09-09 01:45:00,
2013-09-08 20:50:00,90.0,67.0,29.87,South,181,0.0,3.0,47,0.00,,,0.00,Weather View 32 v70,2013-09-09 01:50:00,
2013-09-08 20:55:00,89.8,66.8,29.87,South,181,0.0,3.0,47,0.00,,,0.00,Weather View 32 v70,2013-09-09 01:55:00,
2013-09-08 21:05:00,89.5,67.1,29.87,South,181,0.0,3.0,48,0.00,,,0.00,Weather View 32 v70,2013-09-09 02:05:00,
2013-09-08 21:15:00,89.2,66.9,29.88,South,181,0.0,2.0,48,0.00,,,0.00,Weather View 32 v70,2013-09-09 02:15:00,
2013-09-08 21:20:00,89.1,66.8,29.88,South,181,0.0,5.0,48,0.00,,,0.00,Weather View 32 v70,2013-09-09 02:20:00,
2013-09-08 21:30:00,89.0,67.3,29.88,South,181,0.0,5.0,49,0.00,,,0.00,Weather View 32 v70,2013-09-09 02:30:00,
2013-09-08 21:35:00,88.8,67.1,29.88,South,181,0.0,5.0,49,0.00,,,0.00,Weather View 32 v70,2013-09-09 02:35:00,
2013-09-08 21:40:00,88.5,67.4,29.89,South,181,0.0,5.0,50,0.00,,,0.00,Weather View 32 v70,2013-09-09 02:40:00,
2013-09-08 21:47:00,88.2,67.1,29.89,South,180,4.0,5.0,50,0.00,,,0.00,Weather View 32 v70,2013-09-09 02:47:00,
2013-09-08 21:55:00,87.7,67.3,29.89,South,179,0.0,5.0,51,0.00,,,0.00,Weather View 32 v70,2013-09-09 02:55:00,
2013-09-08 22:00:00,87.5,67.6,29.89,South,180,0.0,5.0,52,0.00,,,0.00,Weather View 32 v70,2013-09-09 03:00:00,
2013-09-08 22:05:00,87.4,67.5,29.90,South,180,0.0,5.0,52,0.00,,,0.00,Weather View 32 v70,2013-09-09 03:05:00,
2013-09-08 22:15:00,87.3,67.4,29.90,South,180,0.0,5.0,52,0.00,,,0.00,Weather View 32 v70,2013-09-09 03:15:00,
2013-09-08 22:20:00,87.2,67.4,29.90,South,180,0.0,5.0,52,0.00,,,0.00,Weather View 32 v70,2013-09-09 03:20:00,
2013-09-08 22:30:00,86.9,67.6,29.90,South,180,0.0,5.0,53,0.00,,,0.00,Weather View 32 v70,2013-09-09 03:30:00,
2013-09-08 22:35:00,86.7,67.4,29.90,South,180,0.0,5.0,53,0.00,,,0.00,Weather View 32 v70,2013-09-09 03:35:00,
2013-09-08 22:45:00,86.6,67.4,29.90,South,180,0.0,4.0,53,0.00,,,0.00,Weather View 32 v70,2013-09-09 03:45:00,
2013-09-08 22:50:00,86.6,67.4,29.90,South,179,0.0,1.0,53,0.00,,,0.00,Weather View 32 v70,2013-09-09 03:50:00,
2013-09-08 23:00:00,86.5,67.3,29.90,South,180,0.0,1.0,53,0.00,,,0.00,Weather View 32 v70,2013-09-09 04:00:00,
2013-09-08 23:05:00,86.4,67.2,29.90,South,180,0.0,1.0,53,0.00,,,0.00,Weather View 32 v70,2013-09-09 04:05:00,
2013-09-08 23:10:00,86.2,67.0,29.90,South,180,0.0,1.0,53,0.00,,,0.00,Weather View 32 v70,2013-09-09 04:10:00,
2013-09-08 23:15:00,86.1,67.4,29.90,South,180,0.0,1.0,54,0.00,,,0.00,Weather View 32 v70,2013-09-09 04:15:00,
2013-09-08 23:25:00,85.7,67.1,29.90,South,180,0.0,1.0,54,0.00,,,0.00,Weather View 32 v70,2013-09-09 04:25:00,
2013-09-08 23:35:00,85.2,67.1,29.90,South,179,0.0,1.0,55,0.00,,,0.00,Weather View 32 v70,2013-09-09 04:35:00,
2013-09-08 23:40:00,85.0,67.5,29.90,South,180,0.0,5.0,56,0.00,,,0.00,Weather View 32 v70,2013-09-09 04:40:00,
2013-09-08 23:45:00,84.8,67.3,29.90,South,179,0.0,5.0,56,0.00,,,0.00,Weather View 32 v70,2013-09-09 04:45:00,
2013-09-08 23:50:00,84.6,67.6,29.90,South,180,0.0,5.0,57,0.00,,,0.00,Weather View 32 v70,2013-09-09 04:50:00,
2013-09-08 23:55:00,84.4,67.9,29.90,South,180,0.0,5.0,58,0.00,,,0.00,Weather View 32 v70,2013-09-09 04:55:00,